Back to catalog

STARLINK-2644

AliveCommunicationsVLEO
NORAD 48442·PAYLOAD·🇺🇸 United States

Launched May 9, 2021 from Cape Canaveral Space Force Station

Loading…

Next Passes (next 24 hours)

TLE

FreshSource: CelesTrak SupGP

Epoch: Sep 14, 2026, 14:21 UTC

1 48442C 21040Q   26257.59840278  .00096174  00000+0  59718-3 0  2570
2 48442  53.1555 357.4513 0006632 347.0708  94.4677 15.76236010    11

Track STARLINK-2644 in real time with AllMySat

Download on the App Store